Station SHXA2 - Sitka Harbor, AK Image indicating link to RSS feed of recent meteorological observations for station SHXA2


Conditions at SHXA2 as of
(9:32 am AKDT)
1732 GMT on 04/20/2024:
     

Click on the graph icon in the table below to see a time series plot of the last five days of that observation.

5-day plot - Wind Direction Wind Direction (WDIR): NW ( 320 deg true )
5-day plot - Wind Speed Wind Speed (WSPD): 2 kts
5-day plot - Wind Gust Wind Gust (GST): 4 kts
5-day plot - Air Temperature Air Temperature (ATMP): 50.9 °F
5-day plot - Dew Point Dew Point (DEWP): 34.3 °F
5-day plot - Wind Speed at 10 Meters Wind Speed at 10 meters (WSPD10M): 2 kts
5-day plot - Wind Speed at 20 Meters Wind Speed at 20 meters (WSPD20M): 4 kts
5-day plot -  Wind Speed, Wind Gust and Atmospheric Pressure Combined plot of Wind Speed, Gust, and Air Pressure
Previous observations
TIME
(AKDT)
5-day plot - Wind Direction
WDIR
 
5-day plot - Wind Speed
WSPD
kts
5-day plot - Wind Gust
GST
kts
5-day plot - Wave Height
WVHT
ft
5-day plot - Dominant Wave Period
DPD
sec
5-day plot - Average Wave Period
APD
sec
5-day plot - Mean Wave Direction
MWD
 
5-day plot - Atmospheric Pressure
PRES
in
5-day plot - Pressure Tendency
PTDY
in
5-day plot - Air Temperature
ATMP
°F
5-day plot - Water Temperature
WTMP
°F
5-day plot - Dew Point
DEWP
°F
5-day plot - Salinity
SAL
psu
5-day plot - Visibility
VIS
nmi
5-day plot - Tide (above MLLW)
TIDE
ft
2024-04-20 09:03 am NW 2 4------ 48.7- 36.9---
2024-04-20 08:53 amNNW 3 5------ 48.6- 36.3---
2024-04-20 08:43 amNNW 2 3------ 48.2- 35.8---
2024-04-20 08:33 am N 2 3------ 47.7- 35.6---
2024-04-20 08:23 amNNW 2 3------ 46.9- 35.1---
2024-04-20 08:13 amNNW 1 2------ 46.8- 35.6---
2024-04-20 08:07 amNNE 1 2------ 45.9- 35.2---
2024-04-20 08:03 amNNE 1 2------ 45.9- 35.2---
2024-04-20 07:43 am- 0 2------ 43.7- 35.1---
2024-04-20 07:32 am- 0 2------ 43.2- 34.2---
2024-04-20 07:22 am NE 1 3------ 42.4- 33.8---
2024-04-20 07:13 am N 1 2------ 42.3- 33.6---
2024-04-20 07:02 amNNE 1 2------ 41.7- 33.3---
2024-04-20 06:52 am S 1 3------ 41.0- 32.9---
2024-04-20 06:42 am- 0 2------ 40.1- 32.4---
2024-04-20 06:32 am E 2 3------ 39.7- 32.2---
2024-04-20 06:23 am E 2 3------ 40.1- 32.4---
2024-04-20 06:12 am S 1 3------ 40.3- 32.4---
2024-04-20 06:02 amENE 2 3------ 39.7- 31.8---
2024-04-20 05:53 am E 2 3------ 39.4- 32.2---
2024-04-20 05:33 am- 0 2------ 40.5- 33.3---
2024-04-20 05:23 amESE 1 3------ 40.8- 33.3---
2024-04-20 05:13 am E 2 3------ 40.3- 32.9---
2024-04-20 05:02 am E 2 3------ 40.6- 32.9---
2024-04-20 04:52 am E 2 3------ 40.5- 32.5---
2024-04-20 04:43 am E 1 3------ 40.6- 32.4---
2024-04-20 04:32 am E 2 3------ 40.6- 32.0---
2024-04-20 04:23 amENE 2 3------ 40.6- 32.5---
2024-04-20 04:12 am E 2 3------ 40.8- 32.7---
2024-04-20 04:02 am S 2 3------ 41.5- 34.3---
2024-04-20 03:52 am S 2 4------ 41.5- 33.6---
2024-04-20 03:42 am E 3 4------ 42.1- 33.1---
2024-04-20 03:32 am E 3 4------ 41.5- 33.4---
2024-04-20 03:23 amESE 1 3------ 41.7- 33.4---
2024-04-20 03:12 am E 2 4------ 41.7- 33.3---
2024-04-20 03:02 am E 1 3------ 41.7- 33.3---
2024-04-20 02:53 amENE 2 4------ 41.4- 33.1---
2024-04-20 02:42 amENE 1 2------ 41.0- 33.3---
2024-04-20 02:32 amNNE 1 2------ 41.2- 32.5---
2024-04-20 02:23 am E 2 3------ 41.0- 32.2---
2024-04-20 02:13 am E 1 5------ 41.2- 32.9---
2024-04-20 02:03 amESE 1 3------ 41.2- 32.5---
2024-04-20 01:53 am E 2 3------ 41.4- 32.5---
2024-04-20 01:42 am- 0 2------ 41.9- 33.3---
2024-04-20 01:32 amESE 1 3------ 41.7- 32.7---
2024-04-20 01:22 am- 0 2------ 42.3- 32.5---
2024-04-20 01:12 am E 2 3------ 42.1- 32.4---
2024-04-20 01:03 amENE 1 2------ 42.3- 32.4---
2024-04-20 12:52 amESE 1 3------ 42.4- 32.4---
2024-04-20 12:43 am E 2 4------ 42.4- 32.2---
2024-04-20 12:32 amSSE 1 2------ 43.2- 32.9---
2024-04-20 12:23 am E 2 2------ 42.8- 32.5---
2024-04-20 12:13 am E 1 3------ 43.3- 32.4---
2024-04-20 12:02 am SE 1 3------ 43.5- 32.2---
2024-04-19 11:52 pmESE 1 2------ 43.9- 32.0---
2024-04-19 11:43 pm E 2 3------ 43.9- 31.8---
2024-04-19 11:32 pmESE 1 2------ 44.1- 31.5---
2024-04-19 11:23 pm E 2 3------ 44.6- 32.2---
2024-04-19 11:13 pm S 1 3------ 44.8- 31.6---
2024-04-19 10:52 pmSSE 1 4------ 45.7- 32.0---
2024-04-19 10:42 pm E 1 2------ 46.0- 31.8---
2024-04-19 10:33 pmESE 2 4------ 45.9- 31.6---
2024-04-19 10:22 pm E 2 4------ 46.4- 31.3---
2024-04-19 10:12 pm E 2 5------ 47.5- 30.4---
2024-04-19 10:02 pm S 2 4------ 48.6- 29.8---
2024-04-19 09:52 pmSSE 2 3------ 48.9- 29.3---
2024-04-19 09:42 pm E 3 4------ 48.9- 28.8---
2024-04-19 09:32 pm E 2 4------ 49.8- 27.3---
2024-04-19 09:23 pm E 3 4------ 49.8- 28.4---
2024-04-19 09:02 pm E 3 5------ 50.5- 30.2---
2024-04-19 08:53 pm E 3 6------ 52.0- 29.5---
2024-04-19 08:43 pm E 2 4------ 53.4- 29.5---
2024-04-19 08:33 pm NE 2 3------ 54.7- 29.8---
2024-04-19 08:23 pm NW 2 3------ 55.8- 28.8---
2024-04-19 08:12 pmWNW 1 3------ 56.8- 25.3---
2024-04-19 08:03 pmWNW 2 3------ 57.0- 27.3---
2024-04-19 07:52 pmWNW 1 3------ 57.7- 28.0---
2024-04-19 07:42 pmWNW 2 3------ 59.0- 26.8---
2024-04-19 07:32 pmWSW 1 2------ 59.4- 27.7---
2024-04-19 07:22 pm SW 1 2------ 59.4- 27.5---
2024-04-19 07:12 pm W 2 3------ 59.2- 26.6---
2024-04-19 07:02 pmWSW 3 4------ 59.2- 26.4---
2024-04-19 06:52 pm S 2 3------ 59.2- 27.0---
2024-04-19 06:43 pm S 3 5------ 58.8- 28.4---
2024-04-19 06:32 pmSSW 2 4------ 59.4- 28.4---
2024-04-19 06:23 pm NW 2 4------ 59.9- 26.8---
2024-04-19 06:13 pmNNW 3 5------ 59.0- 28.8---
2024-04-19 06:02 pm NW 3 6------ 59.0- 28.9---
2024-04-19 05:52 pmNNW 4 6------ 59.2- 28.4---
2024-04-19 05:42 pm N 5 8------ 59.9- 29.1---
2024-04-19 05:33 pm W 5 8------ 60.4- 26.4---
2024-04-19 05:23 pm W 7 10------ 60.6- 27.0---
2024-04-19 05:13 pm SW 5 7------ 62.1- 27.9---
2024-04-19 05:03 pmSSW 6 9------ 62.2- 27.0---
2024-04-19 04:52 pm S 7 9------ 62.4- 24.8---
2024-04-19 04:42 pm S 6 11------ 63.0- 25.2---
2024-04-19 04:32 pm S 7 13------ 63.1- 24.8---
2024-04-19 04:22 pm S 5 12------ 63.1- 24.6---
2024-04-19 04:12 pm S 7 13------ 62.2- 25.5---
2024-04-19 03:52 pm S 5 11------ 63.7- 24.6---
2024-04-19 03:43 pm S 7 13------ 63.3- 23.9---
2024-04-19 03:33 pm S 6 13------ 63.0- 24.6---
2024-04-19 03:22 pm S 7 12------ 62.6- 24.4---
2024-04-19 03:12 pm SE 5 12------ 63.9- 23.5---
2024-04-19 03:02 pm S 6 13------ 63.3- 24.1---
2024-04-19 02:52 pmSSE 6 16------ 63.9- 23.9---
2024-04-19 02:42 pm SE 4 8------ 64.0- 24.3---
2024-04-19 02:32 pm SE 4 12------ 63.9- 23.7---
2024-04-19 02:23 pm SE 5 12------ 63.3- 23.9---
2024-04-19 02:13 pmSSE 5 12------ 63.1- 23.7---
2024-04-19 02:02 pmSSE 7 14------ 63.0- 23.5---
2024-04-19 01:53 pmSSE 6 16------ 62.8- 23.5---
2024-04-19 01:42 pm S 8 13------ 62.1- 23.9---
2024-04-19 01:32 pmSSE 7 16------ 63.0- 23.7---
2024-04-19 01:22 pm SE 6 14------ 63.3- 23.2---
2024-04-19 01:12 pm SE 6 14------ 63.5- 23.2---
2024-04-19 01:02 pm SE 5 13------ 63.3- 23.0---
2024-04-19 12:42 pm SE 7 16------ 63.1- 22.8---
2024-04-19 12:33 pm SE 6 15------ 63.1- 22.6---
2024-04-19 12:23 pmSSE 7 16------ 62.8- 22.3---
2024-04-19 12:12 pm S 8 22------ 62.8- 23.0---
2024-04-19 12:03 pm SE 6 16------ 63.1- 22.1---
2024-04-19 11:52 amSSE 6 18------ 63.1- 22.6---
2024-04-19 11:42 amSSE 7 20------ 63.0- 22.5---
2024-04-19 11:33 amSSE 7 13------ 62.8- 22.6---
2024-04-19 11:23 amSSE 7 14------ 62.8- 22.5---
2024-04-19 11:13 amSSE 6 14------ 62.6- 22.3---
2024-04-19 11:02 am S 10 15------ 61.7- 23.2---
2024-04-19 10:52 am S 8 14------ 61.5- 23.5---
2024-04-19 10:42 am S 9 14------ 61.5- 23.5---
2024-04-19 10:32 am S 9 14------ 61.3- 23.5---
2024-04-19 10:23 am S 9 15------ 61.0- 24.1---
2024-04-19 10:12 am S 7 13------ 60.6- 24.4---
2024-04-19 10:03 am S 7 12------ 60.6- 24.8---
2024-04-19 09:52 am S 8 12------ 59.9- 25.3---
2024-04-19 09:42 amSSE 3 7------ 56.8- 29.8---
2024-04-19 09:33 amWNW 2 5------ 54.3- 32.9---
2024-04-19 09:23 amWNW 3 8------ 51.3- 35.4---
2024-04-19 09:13 amWNW 3 8------ 51.1- 34.7---
2024-04-19 09:03 amWNW 3 5------ 49.8- 35.4---